timestamp,wind_dir_avg,wind_spd_avg,wind_spd_max_dir,wind_spd_gust,battery_voltage,lat,long
2023-03-07 00:04:00+00:00,112.0,4.09,119.0,5.53,12.33,47.59359,-54.27349
2023-03-07 00:14:01+00:00,116.0,3.56,121.0,4.68,12.33,47.59359,-54.27349
2023-03-07 00:24:01+00:00,105.0,3.24,129.0,5.15,12.33,47.59359,-54.27349
2023-03-07 00:34:01+00:00,123.0,4.61,126.0,5.68,12.33,47.59359,-54.27349
2023-03-07 00:44:01+00:00,125.0,4.81,127.0,5.61,12.33,47.59359,-54.27349
2023-03-07 00:54:01+00:00,109.0,2.98,121.0,4.76,12.33,47.59359,-54.27349
2023-03-07 01:04:01+00:00,93.0,2.64,124.0,3.78,12.33,47.59359,-54.27349
2023-03-07 01:14:00+00:00,104.0,3.25,100.0,4.57,12.33,47.59359,-54.27349
2023-03-07 01:24:00+00:00,112.0,3.97,113.0,5.18,12.33,47.59359,-54.27349
2023-03-07 01:34:00+00:00,74.0,3.49,69.0,4.76,12.33,47.59359,-54.27349
2023-03-07 01:44:00+00:00,83.0,3.33,89.0,4.33,12.33,47.59359,-54.27349
2023-03-07 01:54:00+00:00,80.0,3.49,72.0,4.68,12.33,47.59359,-54.27349
2023-03-07 02:04:00+00:00,79.0,3.72,81.0,6.18,12.33,47.59359,-54.27349
2023-03-07 02:14:00+00:00,84.0,3.64,70.0,5.32,12.25,47.59359,-54.27349
2023-03-07 02:24:00+00:00,84.0,3.31,124.0,4.6,12.25,47.59359,-54.27349
2023-03-07 02:34:00+00:00,73.0,3.55,68.0,4.27,12.25,47.59359,-54.27349
2023-03-07 02:44:00+00:00,76.0,3.75,60.0,5.12,12.25,47.59359,-54.27349
2023-03-07 02:54:00+00:00,81.0,3.44,69.0,4.31,12.25,47.59359,-54.27349
2023-03-07 03:04:00+00:00,79.0,3.43,72.0,4.53,12.25,47.59359,-54.27349
2023-03-07 03:14:00+00:00,80.0,4.15,70.0,6.07,12.25,47.59359,-54.27349
2023-03-07 03:24:00+00:00,80.0,3.62,70.0,4.73,12.25,47.59359,-54.27349
2023-03-07 03:34:00+00:00,84.0,3.38,88.0,4.35,12.25,47.59359,-54.27349
2023-03-07 03:44:00+00:00,86.0,3.53,79.0,5.43,12.25,47.59359,-54.27349
2023-03-07 03:54:00+00:00,87.0,3.43,71.0,4.61,12.25,47.59359,-54.27349
2023-03-07 04:04:00+00:00,76.0,3.9,57.0,5.05,12.25,47.59359,-54.27349
2023-03-07 04:14:00+00:00,84.0,3.97,72.0,5.1,12.17,47.59359,-54.27349
2023-03-07 04:24:00+00:00,69.0,5.23,68.0,6.37,12.17,47.59359,-54.27349
2023-03-07 04:34:00+00:00,74.0,5.03,80.0,7.27,12.17,47.59359,-54.27349
2023-03-07 04:44:00+00:00,66.0,5.21,65.0,6.67,12.17,47.59359,-54.27349
2023-03-07 04:54:00+00:00,73.0,4.25,70.0,5.15,12.17,47.59359,-54.27349
2023-03-07 05:04:00+00:00,72.0,4.49,65.0,5.66,12.17,47.59359,-54.27349
2023-03-07 05:14:01+00:00,72.0,4.93,68.0,5.8,12.17,47.59359,-54.27349
2023-03-07 05:24:01+00:00,68.0,5.59,66.0,6.65,12.17,47.59359,-54.27349
2023-03-07 05:34:01+00:00,71.0,5.67,70.0,6.54,12.17,47.59359,-54.27349
2023-03-07 05:44:01+00:00,66.0,5.74,53.0,6.41,12.17,47.59359,-54.27349
2023-03-07 05:54:01+00:00,65.0,5.91,73.0,6.98,12.17,47.59359,-54.27349
2023-03-07 06:04:01+00:00,60.0,5.95,60.0,6.94,12.17,47.59359,-54.27349
2023-03-07 06:14:00+00:00,59.0,6.11,60.0,6.83,12.17,47.59359,-54.27349
2023-03-07 06:24:00+00:00,62.0,5.74,60.0,6.5,12.17,47.59359,-54.27349
2023-03-07 06:34:00+00:00,65.0,6.03,67.0,7.13,12.17,47.59359,-54.27349
2023-03-07 06:44:00+00:00,64.0,5.72,71.0,6.38,12.17,47.59359,-54.27349
2023-03-07 06:54:00+00:00,61.0,5.46,58.0,6.1,12.17,47.59359,-54.27349
2023-03-07 07:04:00+00:00,65.0,5.73,63.0,6.55,12.17,47.59359,-54.27349
2023-03-07 07:14:00+00:00,65.0,7.28,70.0,8.63,12.17,47.59359,-54.27349
2023-03-07 07:24:00+00:00,69.0,7.97,72.0,9.36,12.17,47.59359,-54.27349
2023-03-07 07:34:00+00:00,73.0,8.52,68.0,9.8,12.17,47.59359,-54.27349
2023-03-07 07:44:00+00:00,73.0,9.01,73.0,10.62,12.17,47.59359,-54.27349
2023-03-07 07:54:00+00:00,70.0,8.93,69.0,10.46,12.17,47.59359,-54.27349
2023-03-07 08:04:00+00:00,63.0,7.83,61.0,9.24,12.17,47.59359,-54.27349
2023-03-07 08:14:00+00:00,56.0,5.74,55.0,6.38,12.17,47.59359,-54.27349
2023-03-07 08:24:00+00:00,54.0,6.54,55.0,7.66,12.17,47.59359,-54.27349
2023-03-07 08:34:00+00:00,52.0,7.17,57.0,7.83,12.17,47.59359,-54.27349
2023-03-07 08:44:00+00:00,50.0,7.02,53.0,7.91,12.17,47.59359,-54.27349
2023-03-07 08:54:00+00:00,47.0,6.78,51.0,7.95,12.17,47.59359,-54.27349
2023-03-07 09:04:00+00:00,42.0,7.23,37.0,8.28,12.17,47.59359,-54.27349
2023-03-07 09:14:00+00:00,43.0,7.5,43.0,8.34,12.09,47.59359,-54.27349
2023-03-07 09:24:00+00:00,46.0,7.63,41.0,8.44,12.09,47.59359,-54.27349
2023-03-07 09:34:00+00:00,44.0,6.79,47.0,7.66,12.09,47.59359,-54.27349
2023-03-07 09:44:00+00:00,47.0,6.76,45.0,7.61,12.09,47.59359,-54.27349
2023-03-07 09:54:00+00:00,40.0,6.26,38.0,7.06,12.09,47.59359,-54.27349
2023-03-07 10:04:00+00:00,33.0,6.98,34.0,8.09,12.09,47.59359,-54.27349
2023-03-07 10:14:00+00:00,41.0,7.19,45.0,7.96,12.09,47.59359,-54.27349
2023-03-07 10:24:00+00:00,31.0,7.16,32.0,7.72,12.09,47.59359,-54.27349
2023-03-07 10:34:00+00:00,33.0,7.15,33.0,7.93,12.09,47.59359,-54.27349
2023-03-07 10:44:00+00:00,30.0,7.98,29.0,8.84,12.09,47.59359,-54.27349
2023-03-07 10:54:00+00:00,31.0,8.35,31.0,8.98,12.09,47.59359,-54.27349
2023-03-07 11:04:00+00:00,22.0,8.87,17.0,10.21,12.09,47.59359,-54.27349
2023-03-07 11:14:00+00:00,27.0,7.19,29.0,7.99,12.17,47.59359,-54.27349
2023-03-07 11:24:00+00:00,34.0,7.21,36.0,8.01,12.17,47.59359,-54.27349
2023-03-07 11:34:00+00:00,29.0,5.92,31.0,6.93,12.17,47.59359,-54.27349
2023-03-07 11:44:00+00:00,15.0,6.0,15.0,7.67,12.17,47.59359,-54.27349
2023-03-07 11:54:00+00:00,9.0,6.57,13.0,7.77,12.17,47.59359,-54.27349
2023-03-07 12:04:00+00:00,23.0,6.93,13.0,8.4,12.17,47.59359,-54.27349
2023-03-07 12:14:00+00:00,15.0,8.77,7.0,10.59,12.65,47.59359,-54.27349
2023-03-07 12:24:00+00:00,11.0,7.53,15.0,8.75,12.65,47.59359,-54.27349
2023-03-07 12:34:00+00:00,12.0,7.61,17.0,9.26,12.65,47.59359,-54.27349
2023-03-07 12:44:00+00:00,10.0,8.74,14.0,10.11,12.65,47.59359,-54.27349
2023-03-07 12:54:00+00:00,9.0,8.06,20.0,9.4,12.65,47.59359,-54.27349
2023-03-07 13:04:00+00:00,14.0,7.93,15.0,9.8,12.65,47.59359,-54.27349
2023-03-07 13:14:00+00:00,14.0,7.31,32.0,9.0,13.53,47.59359,-54.27349
2023-03-07 13:24:00+00:00,26.0,8.81,32.0,10.1,13.53,47.59359,-54.27349
2023-03-07 13:34:00+00:00,26.0,7.57,34.0,8.93,13.53,47.59359,-54.27349
2023-03-07 13:44:00+00:00,20.0,6.29,40.0,7.51,13.53,47.59359,-54.27349
2023-03-07 13:54:00+00:00,14.0,6.04,24.0,7.5,13.53,47.59359,-54.27349
2023-03-07 14:04:00+00:00,1.0,5.82,6.0,6.87,13.53,47.59359,-54.27349
2023-03-07 14:14:00+00:00,25.0,7.12,32.0,8.17,13.44,47.59359,-54.27349
2023-03-07 14:24:00+00:00,9.0,6.38,2.0,7.84,13.44,47.59359,-54.27349
2023-03-07 14:34:00+00:00,2.0,6.8,7.0,7.5,13.44,47.59359,-54.27349
2023-03-07 14:44:00+00:00,4.0,6.57,3.0,7.56,13.44,47.59359,-54.27349
2023-03-07 14:54:00+00:00,6.0,5.89,6.0,6.81,13.44,47.59359,-54.27349
2023-03-07 15:04:00+00:00,19.0,6.08,19.0,7.08,13.44,47.59359,-54.27349
2023-03-07 15:14:00+00:00,19.0,6.91,17.0,8.35,13.68,47.59359,-54.27349
2023-03-07 15:24:00+00:00,17.0,7.19,19.0,8.12,13.68,47.59359,-54.27349
2023-03-07 15:34:00+00:00,22.0,6.62,17.0,7.48,13.68,47.59359,-54.27349
2023-03-07 15:44:00+00:00,12.0,5.59,16.0,6.41,13.68,47.59359,-54.27349
2023-03-07 15:54:00+00:00,16.0,6.14,14.0,7.37,13.68,47.59359,-54.27349
2023-03-07 16:04:00+00:00,19.0,7.0,17.0,8.07,13.68,47.59359,-54.27349
2023-03-07 16:14:01+00:00,21.0,6.4,19.0,7.47,13.68,47.59359,-54.27349
2023-03-07 16:24:01+00:00,16.0,5.16,17.0,6.77,13.68,47.59359,-54.27349
2023-03-07 16:34:01+00:00,17.0,6.44,20.0,7.42,13.68,47.59359,-54.27349
2023-03-07 16:44:01+00:00,17.0,6.72,15.0,7.55,13.68,47.59359,-54.27349
2023-03-07 16:54:01+00:00,11.0,5.53,16.0,6.65,13.68,47.59359,-54.27349
2023-03-07 17:04:01+00:00,359.0,5.57,4.0,6.01,13.68,47.59359,-54.27349
2023-03-07 17:14:00+00:00,343.0,4.79,342.0,5.55,13.68,47.59359,-54.27349
2023-03-07 17:24:00+00:00,336.0,4.51,335.0,5.36,13.68,47.59359,-54.27349
2023-03-07 17:34:00+00:00,340.0,5.4,344.0,5.87,13.68,47.59359,-54.27349
2023-03-07 17:44:00+00:00,333.0,4.22,333.0,4.9,13.68,47.59359,-54.27349
2023-03-07 17:54:00+00:00,331.0,4.48,333.0,4.95,13.68,47.59359,-54.27349
2023-03-07 18:04:00+00:00,21.0,5.9,32.0,7.11,13.68,47.59359,-54.27349
2023-03-07 18:14:00+00:00,22.0,5.91,32.0,6.86,13.6,47.59359,-54.27349
2023-03-07 18:24:00+00:00,22.0,4.33,37.0,5.62,13.6,47.59359,-54.27349
2023-03-07 18:34:00+00:00,39.0,5.9,58.0,8.38,13.6,47.59359,-54.27349
2023-03-07 18:44:00+00:00,45.0,9.12,57.0,12.25,13.6,47.59359,-54.27349
2023-03-07 18:54:00+00:00,46.0,10.9,53.0,12.52,13.6,47.59359,-54.27349
2023-03-07 19:04:00+00:00,44.0,10.92,45.0,12.29,13.6,47.59359,-54.27349
2023-03-07 19:14:00+00:00,43.0,11.48,46.0,13.53,13.44,47.59359,-54.27349
2023-03-07 19:24:00+00:00,40.0,11.46,46.0,12.77,13.44,47.59359,-54.27349
2023-03-07 19:34:00+00:00,39.0,10.92,42.0,12.11,13.44,47.59359,-54.27349
2023-03-07 19:44:00+00:00,39.0,11.07,43.0,12.04,13.44,47.59359,-54.27349
2023-03-07 19:54:00+00:00,34.0,9.91,39.0,11.24,13.44,47.59359,-54.27349
2023-03-07 20:04:00+00:00,34.0,9.54,44.0,11.22,13.44,47.59359,-54.27349
2023-03-07 20:14:00+00:00,39.0,9.57,42.0,10.72,13.05,47.59359,-54.27349
2023-03-07 20:24:00+00:00,37.0,8.91,40.0,10.56,13.05,47.59359,-54.27349
2023-03-07 20:34:00+00:00,35.0,8.6,45.0,10.05,13.05,47.59359,-54.27349
2023-03-07 20:44:00+00:00,43.0,10.47,47.0,11.65,13.05,47.59359,-54.27349
2023-03-07 20:54:00+00:00,44.0,10.55,51.0,11.87,13.05,47.59359,-54.27349
2023-03-07 21:04:00+00:00,45.0,10.69,44.0,12.17,13.05,47.59359,-54.27349
2023-03-07 21:14:00+00:00,43.0,10.6,44.0,11.63,12.49,47.59359,-54.27349
2023-03-07 21:24:00+00:00,46.0,10.21,50.0,11.43,12.49,47.59359,-54.27349
2023-03-07 21:34:00+00:00,48.0,10.08,44.0,11.42,12.49,47.59359,-54.27349
2023-03-07 21:44:00+00:00,47.0,10.1,51.0,12.52,12.49,47.59359,-54.27349
2023-03-07 21:54:00+00:00,46.0,9.91,51.0,11.1,12.49,47.59359,-54.27349
2023-03-07 22:04:00+00:00,47.0,9.91,53.0,10.91,12.49,47.59359,-54.27349
2023-03-07 22:14:00+00:00,46.0,10.29,51.0,11.39,12.33,47.59359,-54.27349
2023-03-07 22:24:00+00:00,43.0,11.13,42.0,12.35,12.33,47.59359,-54.27349
2023-03-07 22:34:00+00:00,44.0,11.03,39.0,11.89,12.33,47.59359,-54.27349
2023-03-07 22:44:00+00:00,42.0,11.21,36.0,12.59,12.33,47.59359,-54.27349
2023-03-07 22:54:00+00:00,38.0,11.38,40.0,12.9,12.33,47.59359,-54.27349
2023-03-07 23:04:00+00:00,38.0,11.91,35.0,13.07,12.33,47.59359,-54.27349
2023-03-07 23:14:00+00:00,36.0,12.39,37.0,13.56,12.33,47.59359,-54.27349
2023-03-07 23:24:00+00:00,40.0,11.64,38.0,12.99,12.33,47.59359,-54.27349
2023-03-07 23:34:00+00:00,40.0,11.62,48.0,12.98,12.33,47.59359,-54.27349
2023-03-07 23:44:00+00:00,41.0,11.48,50.0,14.3,12.33,47.59359,-54.27349
2023-03-07 23:54:00+00:00,40.0,11.61,36.0,12.94,12.33,47.59359,-54.27349
